USA 149 (DSP 20)

Last updated on Thu Jul 03 2025 00:02:44 GMT+0000 (Coordinated Universal Time)

1 26356U 00024A 25183.44577604 .00000094 00000+0 00000+0 0 9995 2 26356 12.9048 14.2811 0001771 254.5486 7.2647 1.00264781 29405
UTC large
Height (km)
Speed (km/s)
/
Latitude / Longitude
Inclination (degrees)
Orbital Period (minutes)
Azimuth
Elevation
Range (km)
Doppler Factor

Next 0 passes for location: London (51.5072 / 0.1276)

Sorry there are no passes over London.